454  
ASUS41 KALY 182010  
RWRALY  
 
NEW YORK STATE HOURLY WEATHER ROUNDUP  
NATIONAL WEATHER SERVICE ALBANY NY  
400 PM EDT WED SEP 18 2019  
 
NOTE: "FAIR" INDICATES FEW OR NO CLOUDS BELOW 12,000 FEET WITH NO  
SIGNIFICANT WEATHER AND/OR NO S TO VISIBILITY
.  
 
NYZ032-033-038>043-046>054-057>066-NYZ062>081-082-084-182100-  
EAST  
 
 
CITY SKY/WX TMP DP RH WIND PRES REMARKS
 
ALBANY FAIR 69 42 37 NE7G16 30.28S  
GLENS FALLS FAIR 66 41 40 VRB7 30.28F  
POUGHKEEPSIE FAIR 68 46 45 N9 30.24S  
NEWBURGH MOSUNNY 70 46 43 NE12 30.25S  
MONTGOMERY FAIR 68 45 43 NE14G20 30.24S  
WHITE PLAINS PTSUNNY 66 43 43 NE8 30.24R  
ISLIP PTSUNNY 65 46 50 NE14 30.24F  
NEW YORK CITY FAIR 68 46 45 NE12 30.24R  
CENTRAL PARK PTSUNNY 68 48 48 E7 30.27R  

 
 
NYZ005>009-017-018-044>046-055-056-182100-  
CENTRAL  
 
 
CITY SKY/WX TMP DP RH WIND PRES REMARKS
 
FULTON FAIR 73 49 42 N7 30.27F  
SYRACUSE FAIR 73 49 42 N6 30.27F  
ROME FAIR 74 46 36 VRB7 30.26F  
ELMIRA FAIR 73 47 39 NE9 30.24F  
BINGHAMTON FAIR 69 42 37 N9 30.26F  
MONTICELLO FAIR 68 47 46 E9 30.25S  

 
 
NYZ026>034-041>043-087-182100-  
NORTH  
 
 
CITY SKY/WX TMP DP RH WIND PRES REMARKS
 
WATERTOWN FAIR 72 49 44 E7 30.27F  
FORT DRUM NOT AVBL  
OGDENSBURG FAIR 70 48 46 VRB6G12 30.28S  
MASSENA FAIR 67 46 47 NE8 30.32S  
SARANAC LAKE FAIR 63 37 38 NE10 30.30S  
PLATTSBURGH FAIR 64 37 36 VRB5 30.31F  

 
 
NYZ001>004-010>016-019>021-085-182100-  
WEST  
 
 
CITY SKY/WX TMP DP RH WIND PRES REMARKS
 
NIAGARA FALLS FAIR 72 57 59 NE10 30.26S  
BUFFALO FAIR 75 51 43 E8 30.26F  
DUNKIRK FAIR 74 54 49 N12 30.25F  
JAMESTOWN FAIR 70 49 47 VRB7 30.27F  
WELLSVILLE FAIR 68 47 46 E7 30.30S  
ROCHESTER FAIR 73 49 42 E6 30.28S  
PENN YAN FAIR 71 45 39 VRB5 30.28F  

 
 
KEY  
WCI = WIND CHILL INDEX  
VSB = VISIBILITY  
HX = HEAT INDEX  

 
 
 
CLICK HERE TO GO TO PREVIOUS BULLETINS.

The Nexlab NY Page
The Nexlab VT Page
The Nexlab MA Page
The Nexlab CT Page Main Text Page